Regional Weather Roundup
Issued by NWS Albany, NY

Home | Current Version | Previous Version | Text Only | Print | Product List | Glossary On
Versions: 1 2 3 4 5 6 7 8 9 10 11 12 13 14 15 16 17 18 19 20 21 22 23 24 25 26 27 28 29 30 31 32 33 34 35 36 37 38 39 40 41 42 43 44 45 46 47 48 49 50
000
ASUS41 KALY 132310
RWRALY

NEW YORK STATE HOURLY WEATHER ROUNDUP
NATIONAL WEATHER SERVICE ALBANY NY
600 PM EST SAT FEB 13 2016

NOTE: "FAIR" INDICATES FEW OR NO CLOUDS BELOW 12,000 FEET WITH NO
SIGNIFICANT WEATHER AND/OR NO OBSTRUCTIONS TO VISIBILITY.

NYZ032-033-038>043-046>054-057>066-NYZ062>081-140000-
EAST


CITY           SKY/WX    TMP DP  RH WIND       PRES   REMARKS
ALBANY         PTCLDY    -1 -20  40 NW14G28   30.24R WCI -20
GLENS FALLS    CLEAR     -2 -25  32 W13G23    30.20R WCI -20
POUGHKEEPSIE   MOCLDY     6 -20  29 W16G26    30.25R WCI -12
NEWBURGH       PTCLDY     1 -11  55 NW25G37   30.23R WCI -22
MONTGOMERY     CLEAR      3 -18  37 NW21G35   30.22R WCI -18
WHITE PLAINS   PTCLDY     6 -13  41 NW33G44   30.17R WCI -19
ISLIP          PTCLDY    10 -13  34 NW29G38   30.17R WCI -12
NEW YORK CITY  PTCLDY    13  -8  39 NW30G45   30.23R WCI  -8
CENTRAL PARK   PTCLDY    10 -16  29 NW17G36   30.24R WCI  -8
$$

NYZ005>009-017-018-044>046-055-056-140000-
CENTRAL


CITY           SKY/WX    TMP DP  RH WIND       PRES   REMARKS
FULTON         SNOW       1  -6  72 NW20G28   30.28R VSB 1/2 WCI -20
SYRACUSE       HVY SNOW  -1  -4  87 NW13      30.27R VSB 1/4 WCI -19
ROME           CLOUDY    -7 -15  68 N10       30.28S WCI -25
ELMIRA         MOCLDY     1 -13  51 VRB7      30.26R WCI -12
BINGHAMTON     CLOUDY    -5 -18  53 NW16G26   30.13R WCI -27
MONTICELLO     MOCLDY    -4 -17  54 NW15G25   30.13R WCI -25
$$

NYZ026>034-041>043-140000-
NORTH


CITY           SKY/WX    TMP DP  RH WIND       PRES   REMARKS
WATERTOWN      MOCLDY   -10 -24  50 N7        30.34R WCI -25
FORT DRUM      NOT AVBL
MASSENA        CLOUDY   -14 -26  55 W17G25    30.35R WCI -39
SARANAC LAKE   CLOUDY   -19 -27  66 W9        30.05R HAZE    WCI -39
PLATTSBURGH    CLOUDY   -12 -27  47 NW10      30.28R WCI -31
$$

NYZ001>004-010>016-019>021-140000-
WEST


CITY           SKY/WX    TMP DP  RH WIND       PRES   REMARKS
NIAGARA FALLS  CLOUDY     5  -6  60 NW21      30.36R WCI -16
BUFFALO        LGT SNOW   4  -4  69 NW12G21   30.34R WCI -12
DUNKIRK        CLOUDY     6  -5  60 NW14G25   30.38R WCI -11
JAMESTOWN      CLOUDY     1  -4  78 NW16G23   30.22R VSB 3/4 WCI -18
WELLSVILLE     SNOW       0  -8  69 NW30G40   30.14R VSB 1/2 WCI -26
ROCHESTER      LGT SNOW   1  -5  75 W12       30.32R VSB 3/4 WCI -16
PENN YAN       PTCLDY     0 -13  54 W10G21    30.27R WCI -16
$$

             KEY
       WCI = WIND CHILL INDEX
       VSB = VISIBILITY
       HX  = HEAT INDEX
$$



USA.gov is the U.S. government's official web portal to all federal, state and local government web resources and services.